Tracking 27122 objects as of 24-Mar-2023
HD Live streaming from Space Station
objects crossing your sky now

STARLINK-4615

Track STARLINK-4615 now!
10-day predictions
STARLINK-4615 is classified as:


NORAD ID: 53620
Int'l Code: 2022-104AJ
Perigee: 545.9 km
Apogee: 547.5 km
Inclination: 53.2 °
Period: 95.4 minutes
Semi major axis: 6917 km
RCS: Unknown
Launch date: August 28, 2022
Source: United States (US)
Launch site: AIR FORCE EASTERN TEST RANGE (AFETR)
Your satellite tracking list
Your tracking list is empty




NASA's NSSDC Master Catalog

Two Line Element Set (TLE):
1 53620U 22104AJ  23083.16379265  .00028815  00000-0  18186-2 0  9990
2 53620  53.2176  49.1198 0001190  96.8547 263.2580 15.08891510 31798
Source of the keplerian elements: AFSPC